51,2013-07-17 19:28:44,1374089324,55.20787,-10.10259,2,2,2013-07-17 19:27:00,1374089220,21.07,3,15.8,0,4095,55.2018,-10.0746,72,44
52,2013-07-17 20:06:11,1374091571,55.18217,-10.16442,2,2,2013-07-17 20:00:00,1374091200,19.87,1,15.8,30,4095,55.2018,-10.0746,72,44
53,2013-07-17 21:06:11,1374095171,55.15833,-10.09158,2,2,2013-07-17 21:00:00,1374094800,15.87,8,15.8,30,0,55.173,-10.087,34,44
54,2013-07-17 22:06:13,1374098773,55.20787,-10.10259,3,2,2013-07-17 22:00:00,1374098400,15.18,6,15.8,30,60,55.173,-10.087,34,44
55,2013-07-17 23:06:13,1374102373,55.16348,-10.02979,3,1,2013-07-17 23:00:00,1374102000,15.14,8,15.8,30,120,55.173,-10.087,34,44
56,2013-07-18 00:06:14,1374105974,55.15833,-10.09158,2,5,2013-07-18 00:00:00,1374105600,15.12,6,15.8,30,0,55.1884,-10.0624,64,44
57,2013-07-18 01:06:15,1374109575,55.21303,-10.04073,9,1,2013-07-18 01:00:00,1374109200,15.11,8,15.8,30,60,55.1884,-10.0624,64,44
58,2013-07-18 02:06:11,1374113171,55.19253,-10.04073,2,1,2013-07-18 02:00:00,1374112800,15.09,8,15.8,30,120,55.1884,-10.0624,64,44
59,2013-07-18 03:06:14,1374116774,55.18737,-10.10259,2,6,2013-07-18 03:00:00,1374116400,15.04,9,15.8,30,0,55.1996,-10.0512,12,44
60,2013-07-18 04:06:11,1374120371,55.18737,-10.10259,2,7,2013-07-18 04:00:00,1374120000,15.01,8,15.8,30,60,55.1996,-10.0512,12,44
61,2013-07-18 05:06:13,1374123973,55.21816,-9.97886,3,1,2013-07-18 05:00:00,1374123600,15.02,6,15.8,30,120,55.1996,-10.0512,12,44
62,2013-07-18 06:06:13,1374127573,55.21816,-9.97886,2,1,2013-07-18 06:00:00,1374127200,15.03,5,15.8,30,0,55.2116,-10.0492,62,48
63,2013-07-18 07:06:09,1374131169,55.23692,-10.11362,2,3,2013-07-18 07:00:00,1374130800,15.06,7,15.8,30,60,55.2116,-10.0492,62,48
64,2013-07-18 08:06:09,1374134769,55.19253,-10.04073,6,0,2013-07-18 08:00:00,1374134400,15.08,6,15.8,30,120,55.2116,-10.0492,62,48
65,2013-07-18 09:06:15,1374138375,55.20787,-10.10259,3,33,2013-07-18 09:00:00,1374138000,15.13,6,15.8,30,0,55.223,-10.0446,32,44
66,2013-07-18 10:06:13,1374141973,55.20159,-12.80148,188,2,2013-07-18 10:00:00,1374141600,15.17,6,15.8,30,60,55.223,-10.0446,32,44
67,2013-07-18 11:06:11,1374145571,55.21816,-9.97886,2,6,2013-07-18 11:00:00,1374145200,15.18,6,15.8,30,120,55.223,-10.0446,32,44
68,2013-07-18 12:06:09,1374149169,55.24153,-10.75488,95,2,2013-07-18 12:00:00,1374148800,15.24,9,15.8,30,0,55.2356,-10.023,56,44
69,2013-07-18 13:06:13,1374152773,55.21303,-10.04073,4,2,2013-07-18 13:00:00,1374152400,15.22,6,15.8,30,60,55.2356,-10.023,56,44
70,2013-07-18 14:06:16,1374156376,55.23173,-10.17551,64,2,2013-07-18 14:00:00,1374156000,15.28,8,15.8,30,120,55.2356,-10.023,56,44
71,2013-07-18 15:06:09,1374159969,55.21816,-9.97886,5,3,2013-07-18 15:00:00,1374159600,15.38,8,15.8,30,0,55.2434,-10.0072,62,44
72,2013-07-18 16:06:12,1374163572,55.10683,-7.66919,178,3,2013-07-18 16:00:00,1374163200,15.45,8,15.8,30,60,55.2434,-10.0072,62,44
73,2013-07-18 17:06:13,1374167173,55.21816,-9.97886,6,2,2013-07-18 17:00:00,1374166800,15.36,7,15.8,30,120,55.2434,-10.0072,62,44
74,2013-07-18 18:06:12,1374170772,55.14656,-6.47882,233,3,2013-07-18 18:00:00,1374170400,15.42,8,15.8,30,0,55.25,-10.0076,32,48
75,2013-07-18 19:06:14,1374174374,55.29679,-10.00068,5,9,2013-07-18 19:00:00,1374174000,15.41,7,15.8,30,60,55.25,-10.0076,32,48
76,2013-07-18 20:06:11,1374177971,55.29679,-10.00068,12,7,2013-07-18 20:00:00,1374177600,15.47,7,15.8,30,120,55.25,-10.0076,32,48
77,2013-07-18 21:06:14,1374181574,55.24723,-9.98976,3,11,2013-07-18 21:00:00,1374181200,15.49,7,15.8,30,0,55.2642,-10.009,32,44
78,2013-07-18 22:06:14,1374185174,55.24723,-9.98976,6,5,2013-07-18 22:00:00,1374184800,15.46,5,15.8,30,60,55.2642,-10.009,32,44
79,2013-07-18 23:06:11,1374188771,55.3019,-9.93865,3,7,2013-07-18 23:00:00,1374188400,15.44,6,15.8,30,120,55.2642,-10.009,32,44
80,2013-07-19 00:06:11,1374192371,55.27281,-9.92779,1,1,2013-07-19 00:00:00,1374192000,15.46,5,15.8,30,0,55.2782,-9.9896,32,44
81,2013-07-19 01:06:10,1374195970,55.51596,-5.90614,268,7,2013-07-19 01:00:00,1374195600,15.44,4,15.8,30,60,55.2782,-9.9896,32,44
82,2013-07-19 02:06:10,1374199570,55.24723,-9.98976,6,1,2013-07-19 02:00:00,1374199200,15.42,5,15.8,30,120,55.2782,-9.9896,32,44
83,2013-07-19 03:06:13,1374203173,55.25234,-9.92779,10,1,2013-07-19 03:00:00,1374202800,15.37,8,15.8,30,0,55.2886,-9.9726,80,44
84,2013-07-19 04:06:13,1374206773,55.3019,-9.93865,3,5,2013-07-19 04:00:00,1374206400,15.3,6,15.8,30,60,55.2886,-9.9726,80,44
85,2013-07-19 05:06:10,1374210370,55.29679,-10.00068,4,2,2013-07-19 05:00:00,1374210000,15.26,5,15.8,30,120,55.2886,-9.9726,80,44
86,2013-07-19 06:06:10,1374213970,55.27281,-9.92779,3,1,2013-07-19 06:00:00,1374213600,15.27,6,15.8,30,0,55.2944,-9.976,86,44
87,2013-07-19 07:06:11,1374217571,55.29679,-10.00068,2,1,2013-07-19 07:00:00,1374217200,15.29,6,15.8,30,60,55.2944,-9.976,86,44
88,2013-07-19 08:06:12,1374221172,55.34632,-10.01163,11,2,2013-07-19 08:00:00,1374220800,15.27,7,15.8,30,120,55.2944,-9.976,86,44
89,2013-07-19 09:06:26,1374224786,55.3019,-9.93865,2,9,2013-07-19 09:00:00,1374224400,15.33,7,15.8,30,0,55.3048,-9.9854,92,44
90,2013-07-19 10:06:14,1374228374,55.20537,-14.95168,325,0,2013-07-19 10:00:00,1374228000,15.39,8,15.8,30,60,55.3048,-9.9854,92,44
91,2013-07-19 11:06:11,1374231971,55.29679,-10.00068,5,2,2013-07-19 11:00:00,1374231600,15.44,8,15.8,30,120,55.3048,-9.9854,92,44
92,2013-07-19 12:06:12,1374235572,55.46946,-12.76219,191,2,2013-07-19 12:00:00,1374235200,15.5,7,15.8,30,0,55.3208,-9.9786,110,44
93,2013-07-19 13:06:11,1374239171,55.34632,-10.01163,1,2,2013-07-19 13:00:00,1374238800,15.54,8,15.8,30,60,55.3208,-9.9786,110,44
94,2013-07-19 14:06:10,1374242770,55.34632,-10.01163,3,2,2013-07-19 14:00:00,1374242400,15.62,7,15.8,30,120,55.3208,-9.9786,110,44
95,2013-07-19 15:06:11,1374246371,55.32235,-9.93865,2,8,2013-07-19 15:00:00,1374246000,15.7,7,15.8,30,0,55.3358,-9.959,94,44
96,2013-07-19 16:06:09,1374249969,55.30249,-9.17238,81,5,2013-07-19 16:00:00,1374249600,15.7,7,15.8,30,60,55.3358,-9.959,94,44
97,2013-07-19 17:06:18,1374253578,55.34632,-10.01163,2,1,2013-07-19 17:00:00,1374253200,15.74,8,15.8,30,120,55.3358,-9.959,94,44
98,2013-07-19 18:06:12,1374257172,55.34151,-8.92347,96,5,2013-07-19 18:00:00,1374256800,15.74,8,15.8,30,0,55.345,-9.9528,86,48
99,2013-07-19 19:06:11,1374260771,55.35145,-9.94954,3,2,2013-07-19 19:00:00,1374260400,15.74,7,15.8,30,60,55.345,-9.9528,86,48
100,2013-07-19 20:06:09,1374264369,55.3019,-9.93865,12,1,2013-07-19 20:00:00,1374264000,15.72,7,15.8,30,120,55.345,-9.9528,86,48
101,2013-07-19 21:06:14,1374267974,55.34632,-10.01163,3,5,2013-07-19 21:00:00,1374267600,15.73,9,15.8,30,0,55.3518,-9.96039999999999,120,40
102,2013-07-19 22:06:11,1374271571,55.32235,-9.93865,4,5,2013-07-19 22:00:00,1374271200,15.69,8,15.8,30,60,55.3518,-9.96039999999999,120,40
103,2013-07-19 23:06:09,1374275169,55.34632,-10.01163,9,2,2013-07-19 23:00:00,1374274800,15.67,7,15.8,30,120,55.3518,-9.96039999999999,120,40
104,2013-07-20 00:06:19,1374278779,55.35145,-9.94954,4,1,2013-07-20 00:00:00,1374278400,15.66,9,15.8,30,0,55.3702,-9.96199999999999,88,44
105,2013-07-20 01:06:13,1374282373,55.50095,-7.61975,165,5,2013-07-20 01:00:00,1374282000,15.66,9,15.8,30,60,55.3702,-9.96199999999999,88,44
106,2013-07-20 02:06:13,1374285973,55.35145,-9.94954,3,1,2013-07-20 02:00:00,1374285600,15.65,9,15.8,30,120,55.3702,-9.96199999999999,88,44
107,2013-07-20 03:06:12,1374289572,55.40098,-9.96044,8,5,2013-07-20 03:00:00,1374289200,15.65,9,15.8,30,0,55.3888,-9.92959999999999,80,44
108,2013-07-20 04:06:14,1374293174,55.35654,-9.88742,2,2,2013-07-20 04:00:00,1374292800,15.64,8,15.8,30,60,55.3888,-9.92959999999999,80,44
109,2013-07-20 05:06:13,1374296773,55.38057,-9.96044,3,9,2013-07-20 05:00:00,1374296400,15.63,7,15.8,30,120,55.3888,-9.92959999999999,80,44
110,2013-07-20 06:06:09,1374300369,55.38057,-9.96044,2,1,2013-07-20 06:00:00,1374300000,15.64,6,15.8,30,0,55.3942,-9.9076,80,44
111,2013-07-20 07:06:15,1374303975,55.43522,-9.90912,12,2,2013-07-20 07:00:00,1374303600,15.65,6,15.8,30,60,55.3942,-9.9076,80,44
112,2013-07-20 08:06:09,1374307569,55.40607,-9.89826,2,1,2013-07-20 08:00:00,1374307200,15.68,7,15.8,30,120,55.3942,-9.9076,80,44
113,2013-07-20 09:06:15,1374311175,55.40098,-9.96044,2,19,2013-07-20 09:00:00,1374310800,15.79,7,15.8,30,0,55.3932,-9.9152,32,44
114,2013-07-20 10:06:16,1374314776,55.35145,-9.94954,7,0,2013-07-20 10:00:00,1374314400,15.87,6,15.8,30,60,55.3932,-9.9152,32,44
115,2013-07-20 11:06:12,1374318372,55.40607,-9.89826,3,2,2013-07-20 11:00:00,1374318000,16.21,7,15.8,30,120,55.3932,-9.9152,32,44
116,2013-07-20 12:06:26,1374321986,55.67606,-15.27187,350,2,2013-07-20 12:00:00,1374321600,16.38,8,15.8,30,0,55.4036,-9.92839999999998,62,44
117,2013-07-20 13:06:12,1374325572,55.43522,-9.90912,6,2,2013-07-20 13:00:00,1374325200,16.67,7,15.8,30,60,55.4036,-9.92839999999998,62,44
118,2013-07-20 14:06:12,1374329172,55.6015,-14.29787,10,7,2013-07-20 14:00:00,1374328800,16.66,7,15.8,30,120,55.4036,-9.92839999999998,62,44
119,2013-07-20 15:06:12,1374332772,55.43522,-9.90912,3,2,2013-07-20 15:00:00,1374332400,16.7,7,15.8,30,0,55.423,-9.91079999999999,50,44
120,2013-07-20 16:06:11,1374336371,55.51005,-11.34719,114,4,2013-07-20 16:00:00,1374336000,16.77,5,15.8,30,60,55.423,-9.91079999999999,50,44
121,2013-07-20 17:06:19,1374339979,55.43522,-9.90912,2,2,2013-07-20 17:00:00,1374339600,17.1,6,15.8,30,120,55.423,-9.91079999999999,50,44
122,2013-07-20 18:06:13,1374343573,55.3568,-9.12017,195,2,2013-07-20 18:00:00,1374343200,17.19,7,15.8,30,0,55.4318,-9.88899999999998,32,48
123,2013-07-20 19:06:10,1374347170,55.41114,-9.83605,2,2,2013-07-20 19:00:00,1374346800,17.19,7,15.8,30,60,55.4318,-9.88899999999998,32,48
124,2013-07-20 20:06:11,1374350771,55.37718,-8.42466,113,7,2013-07-20 20:00:00,1374350400,17.08,7,15.8,30,120,55.4318,-9.88899999999998,32,48
125,2013-07-20 21:06:15,1374354375,55.43522,-9.90912,2,4,2013-07-20 21:00:00,1374354000,16.92,6,15.8,30,0,55.434,-9.8904,32,44
126,2013-07-20 22:06:12,1374357972,55.42301,-8.04969,144,7,2013-07-20 22:00:00,1374357600,16.97,7,15.8,30,60,55.434,-9.8904,32,44
127,2013-07-20 23:06:10,1374361570,55.40607,-9.89826,2,4,2013-07-20 23:00:00,1374361200,16.87,6,15.8,30,120,55.434,-9.8904,32,44
128,2013-07-21 00:06:13,1374365173,55.40607,-9.89826,2,6,2013-07-21 00:00:00,1374364800,16.82,7,15.8,30,0,55.4374,-9.90219999999999,32,44
129,2013-07-21 01:06:13,1374368773,55.40607,-9.89826,3,2,2013-07-21 01:00:00,1374368400,16.82,7,15.8,30,60,55.4374,-9.90219999999999,32,44
130,2013-07-21 02:06:12,1374372372,55.44029,-9.84685,2,2,2013-07-21 02:00:00,1374372000,16.82,5,15.8,30,120,55.4374,-9.90219999999999,32,44
131,2013-07-21 03:06:14,1374375974,55.56992,-7.31383,176,3,2013-07-21 03:00:00,1374375600,16.72,7,15.8,30,0,55.449,-9.8896,32,36
132,2013-07-21 04:06:15,1374379575,55.45559,-9.90912,2,3,2013-07-21 04:00:00,1374379200,16.67,5,15.8,30,60,55.449,-9.8896,32,36
133,2013-07-21 05:06:15,1374383175,55.46067,-9.84685,3,2,2013-07-21 05:00:00,1374382800,16.61,6,15.8,30,120,55.449,-9.8896,32,36
134,2013-07-21 06:06:14,1374386774,55.46067,-9.84685,2,1,2013-07-21 06:00:00,1374386400,16.5,6,15.8,30,0,55.4548,-9.87039999999999,32,44
135,2013-07-21 07:06:11,1374390371,55.48475,-9.92001,3,5,2013-07-21 07:00:00,1374390000,16.4,6,15.8,30,60,55.4548,-9.87039999999999,32,44
136,2013-07-21 08:06:11,1374393971,55.45559,-9.90912,3,1,2013-07-21 08:00:00,1374393600,16.36,6,15.8,30,120,55.4548,-9.87039999999999,32,44
137,2013-07-21 09:06:14,1374397574,55.43522,-9.90912,4,8,2013-07-21 09:00:00,1374397200,16.36,7,15.8,30,0,55.4566,-9.87379999999999,42,40
138,2013-07-21 10:06:14,1374401174,55.48983,-9.85767,6,3,2013-07-21 10:00:00,1374400800,16.49,6,15.8,30,60,55.4566,-9.87379999999999,42,40
139,2013-07-21 11:06:12,1374404772,55.44029,-9.84685,2,6,2013-07-21 11:00:00,1374404400,16.56,7,15.8,30,120,55.4566,-9.87379999999999,42,40
140,2013-07-21 12:06:15,1374408375,55.48475,-9.92001,4,7,2013-07-21 12:00:00,1374408000,16.63,8,15.8,30,0,55.46,-9.8826,62,40
141,2013-07-21 13:06:13,1374411973,55.43522,-9.90912,4,4,2013-07-21 13:00:00,1374411600,16.59,6,15.8,30,60,55.46,-9.8826,62,40
142,2013-07-21 14:06:33,1374415593,55.71654,-14.36082,289,1,2013-07-21 14:00:00,1374415200,16.74,7,15.8,30,120,55.46,-9.8826,62,40
143,2013-07-21 15:06:13,1374419173,55.48475,-9.92001,2,5,2013-07-21 15:00:00,1374418800,16.73,7,15.8,31,0,55.4722,-9.88139999999999,56,44
144,2013-07-21 16:06:14,1374422774,55.57583,-11.82004,159,6,2013-07-21 16:00:00,1374422400,16.81,8,15.8,30,60,55.4722,-9.88139999999999,56,44
145,2013-07-21 17:06:11,1374426371,55.54441,-9.80609,9,1,2013-07-21 17:00:00,1374426000,17.05,8,15.8,30,120,55.4722,-9.88139999999999,56,44
146,2013-07-21 18:06:23,1374429983,55.50855,-10.70135,82,1,2013-07-21 18:00:00,1374429600,16.94,6,15.8,30,0,55.4852,-9.864,32,48
147,2013-07-21 19:06:14,1374433574,55.53935,-9.86852,5,4,2013-07-21 19:00:00,1374433200,16.87,6,15.8,30,60,55.4852,-9.864,32,48
148,2013-07-21 20:06:12,1374437172,55.55247,-10.7754,109,2,2013-07-21 20:00:00,1374436800,16.85,7,15.8,30,120,55.4852,-9.864,32,48
149,2013-07-21 21:06:14,1374440774,55.53935,-9.86852,4,3,2013-07-21 21:00:00,1374440400,16.86,7,15.8,30,0,55.4924,-9.86679999999998,86,44
150,2013-07-21 22:06:13,1374444373,55.48983,-9.85767,14,11,2013-07-21 22:00:00,1374444000,16.83,9,15.8,30,60,55.4924,-9.86679999999998,86,44
151,2013-07-21 23:06:19,1374447979,55.48983,-9.85767,2,3,2013-07-21 23:00:00,1374447600,16.81,6,15.8,30,120,55.4924,-9.86679999999998,86,44
152,2013-07-22 00:06:11,1374451571,55.48983,-9.85767,2,1,2013-07-22 00:00:00,1374451200,16.77,6,15.8,30,0,55.4916,-9.87279999999998,82,40
153,2013-07-22 01:06:13,1374455173,55.49323,-10.1803,69,2,2013-07-22 01:00:00,1374454800,16.69,7,15.6,30,60,55.4916,-9.87279999999998,82,40
154,2013-07-22 02:06:17,1374458777,55.46067,-9.84685,5,1,2013-07-22 02:00:00,1374458400,16.64,7,15.6,30,120,55.4916,-9.87279999999998,82,40
155,2013-07-22 03:06:12,1374462372,55.49919,-8.96275,125,6,2013-07-22 03:00:00,1374462000,16.53,6,15.6,30,0,55.4954,-9.87019999999998,30,44
156,2013-07-22 04:06:13,1374465973,55.48983,-9.85767,3,2,2013-07-22 04:00:00,1374465600,16.43,8,15.6,30,60,55.4954,-9.87019999999998,30,44
157,2013-07-22 05:06:12,1374469572,55.53426,-9.93093,7,5,2013-07-22 05:00:00,1374469200,16.65,6,15.6,30,120,55.4954,-9.87019999999998,30,44
158,2013-07-22 06:06:14,1374473174,55.53426,-9.93093,4,1,2013-07-22 06:00:00,1374472800,16.77,8,15.6,30,0,55.5026,-9.86439999999999,78,44
159,2013-07-22 07:06:12,1374476772,55.48475,-9.92001,5,1,2013-07-22 07:00:00,1374476400,16.85,6,15.6,30,60,55.5026,-9.86439999999999,78,44
160,2013-07-22 08:06:14,1374480374,55.53935,-9.86852,7,1,2013-07-22 08:00:00,1374480000,16.78,6,15.6,30,120,55.5026,-9.86439999999999,78,44
161,2013-07-22 09:06:14,1374483974,55.49488,-9.79531,3,1,2013-07-22 09:00:00,1374483600,16.83,6,15.6,30,0,55.5034,-9.86519999999999,84,44
162,2013-07-22 10:06:11,1374487571,55.49488,-9.79531,1,1,2013-07-22 10:00:00,1374487200,16.86,7,15.6,30,60,55.5034,-9.86519999999999,84,44
163,2013-07-22 11:06:13,1374491173,55.48983,-9.85767,7,3,2013-07-22 11:00:00,1374490800,17.03,6,15.6,30,120,55.5034,-9.86519999999999,84,44
164,2013-07-22 12:06:12,1374494772,55.49488,-9.79531,2,3,2013-07-22 12:00:00,1374494400,17.03,6,15.6,30,0,55.5022,-9.87799999999999,120,44
165,2013-07-22 13:06:11,1374498371,55.48475,-9.92001,1,3,2013-07-22 13:00:00,1374498000,17.11,6,15.6,30,60,55.5022,-9.87799999999999,120,44
166,2013-07-22 14:06:13,1374501973,55.48475,-9.92001,3,3,2013-07-22 14:00:00,1374501600,17.18,6,15.6,30,120,55.5022,-9.87799999999999,120,44
167,2013-07-22 15:06:15,1374505575,55.48983,-9.85767,2,3,2013-07-22 15:00:00,1374505200,17.2,7,15.6,30,0,55.5026,-9.8766,56,44
168,2013-07-22 16:06:13,1374509173,55.49488,-9.79531,4,8,2013-07-22 16:00:00,1374508800,17.34,6,15.6,30,60,55.5026,-9.8766,56,44
169,2013-07-22 17:06:12,1374512772,55.48475,-9.92001,2,3,2013-07-22 17:00:00,1374512400,17.2,6,15.6,30,120,55.5026,-9.8766,56,44
170,2013-07-22 18:06:19,1374516379,55.67733,-13.09478,216,3,2013-07-22 18:00:00,1374516000,17.28,8,15.6,30,0,55.509,-9.87139999999999,60,48
171,2013-07-22 19:06:15,1374519975,55.53935,-9.86852,3,3,2013-07-22 19:00:00,1374519600,17.24,8,15.6,30,60,55.509,-9.87139999999999,60,48
172,2013-07-22 20:06:12,1374523572,55.50652,-10.37848,124,6,2013-07-22 20:00:00,1374523200,17.21,6,15.6,30,120,55.509,-9.87139999999999,60,48
173,2013-07-22 21:06:37,1374527197,55.49488,-9.79531,2,4,2013-07-22 21:00:00,1374526800,17.07,5,15.6,30,0,55.5124,-9.87439999999998,60,44
174,2013-07-22 22:06:11,1374530771,55.48983,-9.85767,4,3,2013-07-22 22:00:00,1374530400,16.67,9,15.6,38,60,55.5124,-9.87439999999998,60,44
175,2013-07-22 23:06:15,1374534375,55.48475,-9.92001,7,3,2013-07-22 23:00:00,1374534000,16.77,6,15.6,30,120,55.5124,-9.87439999999998,60,44
176,2013-07-23 00:06:14,1374537974,55.48983,-9.85767,3,3,2013-07-23 00:00:00,1374537600,16.81,6,15.6,30,0,55.5106,-9.88139999999999,80,44
177,2013-07-23 01:06:12,1374541572,55.54441,-9.80609,4,3,2013-07-23 01:00:00,1374541200,16.93,5,15.6,30,60,55.5106,-9.88139999999999,80,44
178,2013-07-23 02:06:11,1374545171,55.48475,-9.92001,3,1,2013-07-23 02:00:00,1374544800,16.88,6,15.6,30,120,55.5106,-9.88139999999999,80,44
179,2013-07-23 03:06:12,1374548772,55.55339,-8.91002,100,1,2013-07-23 03:00:00,1374548400,17.02,7,15.6,30,0,55.507,-9.8758,32,44
180,2013-07-23 04:06:17,1374552377,55.48983,-9.85767,2,2,2013-07-23 04:00:00,1374552000,16.92,6,15.6,30,60,55.507,-9.8758,32,44
181,2013-07-23 05:06:21,1374555981,55.5422,-8.64982,102,1,2013-07-23 05:00:00,1374555600,16.88,7,15.6,30,120,55.507,-9.8758,32,44
182,2013-07-23 06:06:12,1374559572,55.48475,-9.92001,2,6,2013-07-23 06:00:00,1374559200,16.93,6,15.6,30,0,55.5116,-9.8664,32,48
183,2013-07-23 07:06:15,1374563175,55.62576,-7.70796,169,1,2013-07-23 07:00:00,1374562800,17.01,5,15.6,30,60,55.5116,-9.8664,32,48
184,2013-07-23 08:06:11,1374566771,55.49488,-9.79531,1,3,2013-07-23 08:00:00,1374566400,17.08,6,15.6,30,120,55.5116,-9.8664,32,48
185,2013-07-23 09:06:13,1374570373,55.53426,-9.93093,3,2,2013-07-23 09:00:00,1374570000,17.02,6,15.6,30,0,55.5118,-9.8664,32,48
186,2013-07-23 10:06:13,1374573973,55.48983,-9.85767,5,0,2013-07-23 10:00:00,1374573600,17.06,5,15.6,30,60,55.5118,-9.8664,32,48
187,2013-07-23 11:06:10,1374577570,55.51392,-9.93093,2,20,2013-07-23 11:00:00,1374577200,17.07,5,15.6,30,120,55.5118,-9.8664,32,48
188,2013-07-23 12:06:13,1374581173,55.53935,-9.86852,8,3,2013-07-23 12:00:00,1374580800,17.05,5,15.6,30,0,55.5098,-9.88159999999999,32,48
189,2013-07-23 13:06:14,1374584774,55.53935,-9.86852,8,2,2013-07-23 13:00:00,1374584400,17.04,6,15.6,30,60,55.5098,-9.88159999999999,32,48
190,2013-07-23 14:06:18,1374588378,55.48983,-9.85767,3,2,2013-07-23 14:00:00,1374588000,17.21,6,15.6,30,120,55.5098,-9.88159999999999,32,48
191,2013-07-23 15:06:12,1374591972,55.48475,-9.92001,3,8,2013-07-23 15:00:00,1374591600,17.37,6,15.6,30,0,55.506,-9.88579999999999,54,40
192,2013-07-23 16:06:10,1374595570,55.53935,-9.86852,4,4,2013-07-23 16:00:00,1374595200,17.47,6,15.6,30,60,55.506,-9.88579999999999,54,40
193,2013-07-23 17:06:12,1374599172,55.53426,-9.93093,2,9,2013-07-23 17:00:00,1374598800,17.37,5,15.6,30,120,55.506,-9.88579999999999,54,40
194,2013-07-23 18:06:15,1374602775,55.70617,-13.29519,233,5,2013-07-23 18:00:00,1374602400,17.17,6,15.6,30,0,55.513,-9.87179999999998,32,40
195,2013-07-23 19:06:14,1374606374,55.49488,-9.79531,2,3,2013-07-23 19:00:00,1374606000,17.16,7,15.6,30,60,55.513,-9.87179999999998,32,40
196,2013-07-23 20:06:11,1374609971,55.66571,-12.63229,185,9,2013-07-23 20:00:00,1374609600,17.17,6,15.6,30,120,55.513,-9.87179999999998,32,40
197,2013-07-23 21:06:14,1374613574,55.51392,-9.93093,1,5,2013-07-23 21:00:00,1374613200,17.22,7,15.6,30,0,55.5168,-9.86199999999999,60,44
198,2013-07-23 22:06:12,1374617172,55.63977,-12.29447,174,3,2013-07-23 22:00:00,1374616800,17.12,6,15.6,30,60,55.5168,-9.86199999999999,60,44
199,2013-07-23 23:06:11,1374620771,55.48983,-9.85767,2,8,2013-07-23 23:00:00,1374620400,16.99,8,15.6,30,120,55.5168,-9.86199999999999,60,44
200,2013-07-24 00:06:14,1374624374,55.48475,-9.92001,2,2,2013-07-24 00:00:00,1374624000,16.86,6,15.6,30,0,55.5116,-9.87199999999999,92,44
201,2013-07-24 01:06:14,1374627974,55.48532,-11.91799,151,5,2013-07-24 01:00:00,1374627600,16.83,7,15.6,30,60,55.5116,-9.87199999999999,92,44
202,2013-07-24 02:06:12,1374631572,55.48983,-9.85767,2,2,2013-07-24 02:00:00,1374631200,16.86,8,15.6,30,120,55.5116,-9.87199999999999,92,44
203,2013-07-24 03:06:11,1374635171,55.44305,-11.52071,123,1,2013-07-24 03:00:00,1374634800,16.84,6,15.6,30,0,55.509,-9.8758,8,44
204,2013-07-24 04:06:20,1374638780,55.48475,-9.92001,2,1,2013-07-24 04:00:00,1374638400,16.79,8,15.6,30,60,55.509,-9.8758,8,44
205,2013-07-24 05:06:12,1374642372,55.51523,-9.79531,3,5,2013-07-24 05:00:00,1374642000,16.67,5,15.6,30,120,55.509,-9.8758,8,44
206,2013-07-24 06:06:12,1374645972,55.54441,-9.80609,2,1,2013-07-24 06:00:00,1374645600,16.67,7,15.6,30,0,55.518,-9.86660000000001,54,44
207,2013-07-24 07:06:14,1374649574,55.61372,-8.34557,116,1,2013-07-24 07:00:00,1374649200,16.69,6,15.6,30,60,55.518,-9.86660000000001,54,44
208,2013-07-24 08:06:12,1374653172,55.53935,-9.86852,3,1,2013-07-24 08:00:00,1374652800,16.69,8,15.6,30,120,55.518,-9.86660000000001,54,44
209,2013-07-24 09:06:14,1374656774,55.48475,-9.92001,11,0,2013-07-24 09:00:00,1374656400,16.72,8,15.6,30,0,55.5184,-9.85120000000001,146,36
210,2013-07-24 10:06:13,1374660373,55.54441,-9.80609,5,1,2013-07-24 10:00:00,1374660000,16.73,8,15.6,30,60,55.5184,-9.85120000000001,146,36
211,2013-07-24 11:06:19,1374663979,55.49488,-9.79531,3,2,2013-07-24 11:00:00,1374663600,16.75,9,15.6,30,120,55.5184,-9.85120000000001,146,36
212,2013-07-24 12:06:14,1374667574,55.53935,-9.86852,4,4,2013-07-24 12:00:00,1374667200,16.74,7,15.6,30,0,55.5154,-9.86599999999999,90,44
213,2013-07-24 13:06:14,1374671174,55.48983,-9.85767,6,3,2013-07-24 13:00:00,1374670800,16.75,7,15.6,30,60,55.5154,-9.86599999999999,90,44
214,2013-07-24 14:06:13,1374674773,55.53935,-9.86852,2,3,2013-07-24 14:00:00,1374674400,16.74,7,15.6,30,120,55.5154,-9.86599999999999,90,44
215,2013-07-24 15:06:12,1374678372,55.53426,-9.93093,2,6,2013-07-24 15:00:00,1374678000,16.73,8,15.6,30,0,55.5152,-9.87199999999999,90,40
216,2013-07-24 16:06:12,1374681972,55.48475,-9.92001,13,4,2013-07-24 16:00:00,1374681600,16.69,7,15.6,30,60,55.5152,-9.87199999999999,90,40
217,2013-07-24 17:06:12,1374685572,55.48983,-9.85767,9,3,2013-07-24 17:00:00,1374685200,16.61,7,15.6,30,120,55.5152,-9.87199999999999,90,40
218,2013-07-24 18:06:13,1374689173,55.84837,-14.87375,323,6,2013-07-24 18:00:00,1374688800,16.63,8,15.6,30,0,55.5212,-9.86099999999999,78,44
219,2013-07-24 19:06:11,1374692771,55.53935,-9.86852,2,7,2013-07-24 19:00:00,1374692400,16.64,7,15.6,30,60,55.5212,-9.86099999999999,78,44
220,2013-07-24 20:06:15,1374696375,55.78407,-14.98076,332,5,2013-07-24 20:00:00,1374696000,16.62,9,15.6,30,120,55.5212,-9.86099999999999,78,44
221,2013-07-24 21:06:10,1374699970,55.53935,-9.86852,5,2,2013-07-24 21:00:00,1374699600,16.63,6,15.6,30,0,55.5294,-9.8398,60,44
222,2013-07-24 22:06:10,1374703570,55.48983,-9.85767,2,2,2013-07-24 22:00:00,1374703200,16.68,7,15.6,30,60,55.5294,-9.8398,60,44
223,2013-07-24 23:06:12,1374707172,55.53935,-9.86852,15,7,2013-07-24 23:00:00,1374706800,16.69,7,15.6,30,120,55.5294,-9.8398,60,44
224,2013-07-25 00:06:11,1374710771,55.54441,-9.80609,2,2,2013-07-25 00:00:00,1374710400,16.68,9,15.6,30,0,55.5254,-9.8374,62,44
225,2013-07-25 01:06:10,1374714370,55.44801,-14.38925,295,1,2013-07-25 01:00:00,1374714000,16.65,7,15.6,30,60,55.5254,-9.8374,62,44
226,2013-07-25 02:06:10,1374717970,55.51901,-9.86852,2,6,2013-07-25 02:00:00,1374717600,16.63,8,15.6,30,120,55.5254,-9.8374,62,44
227,2013-07-25 03:06:10,1374721570,55.36002,-13.11763,224,1,2013-07-25 03:00:00,1374721200,16.62,8,15.6,30,0,55.5206,-9.8398,14,44
228,2013-07-25 04:06:13,1374725173,55.54441,-9.80609,3,2,2013-07-25 04:00:00,1374724800,16.61,6,15.6,30,60,55.5206,-9.8398,14,44